Flag for France Weather past 2 weeks in Villeurbanne, France

Now
63 °F

Clear.


Feels Like: 63 °F
Forecast: 62 / 74 °F
Wind: No wind

Location: Lyon / Bron

Current Time: Oct 1, 2014 at 12:34:36 AM

Latest Report: Oct 1, 2014 at 12:00 AM


Visibility: N/A

Pressure: 30.27 "Hg

Humidity: 83%

Dew point: 57 °F

Location of VilleurbanneLocation

Historic Weather in Villeurbanne — Graph

°F

Villeurbanne temperature yesterday

Maximum temperature yesterday: 77 °F (at 4:30 PM)
Minimum temperature yesterday: 63 °F (at 1:30 AM)
Average temperature yesterday: 67 °F

Past Weeks' High & Low Weather Summary

 TemperatureHumidityPressure
High82 °F (Sep 16, 4:00 PM)100% (Sep 25, 8:00 AM)30.33 "Hg (Sep 25, 8:00 AM)
Low46 °F (Sep 26, 4:00 AM)32% (Sep 28, 3:30 PM)29.80 "Hg (Sep 17, 2:00 PM)
Average64 °F70%30.09 "Hg
* Reported Sep 15 11:00 PM — Sep 30 11:30 PM, Villeurbanne, Weather by CustomWeather, © 2014

Note: Actual official high and low records may vary slightly from our data, if they occured in-between our weather recording intervals... More about our weather records

Advertising

Villeurbanne weather history for previous 24 hours

 ConditionsComfort  
Time TempWeatherWind HumidityBarometerVisibility
11:30 PM
Sep 30
64 °FClear.No wind78%30.27 "HgN/A
10:30 PM66 °FClear.2 mph78%30.27 "HgN/A
10:00 PM66 °FClear.No wind78%30.27 "HgN/A
9:30 PM68 °FClear.No wind73%30.27 "HgN/A
9:00 PM68 °FClear.No wind69%30.27 "HgN/A
8:30 PM70 °FClear.2 mph69%30.27 "HgN/A
8:00 PM70 °FClear.3 mph69%30.27 "HgN/A
7:30 PM72 °FClear.3 mph61%30.27 "HgN/A
7:00 PM72 °FClear.3 mph61%30.27 "HgN/A
6:30 PM72 °FClear.5 mph61%30.27 "HgN/A
6:00 PM73 °FClear.5 mph53%30.24 "HgN/A
5:30 PM73 °FClear.2 mph53%30.24 "HgN/A
5:00 PM75 °FBroken clouds.5 mph50%30.27 "HgN/A
4:30 PM77 °FPartly sunny.5 mph47%30.27 "HgN/A
3:30 PM75 °FScattered clouds.5 mph50%30.27 "HgN/A
3:00 PM75 °FClear.3 mph50%30.27 "HgN/A
2:30 PM75 °FPartly sunny.5 mph50%30.30 "HgN/A
2:00 PM73 °FScattered clouds.3 mph61%30.30 "HgN/A
1:30 PM73 °FClear.5 mph61%30.30 "HgN/A
1:00 PM72 °FClear.2 mph65%30.30 "HgN/A
12:30 PM70 °FClear.6 mph64%30.33 "HgN/A
12:00 PM68 °FClear.7 mph73%30.33 "HgN/A
11:30 AM68 °FClear.7 mph73%30.33 "HgN/A
11:00 AM66 °FClear.7 mph78%30.30 "HgN/A
10:30 AM66 °FClear.7 mph78%30.30 "HgN/A
10:00 AM64 °FClear.5 mph83%30.30 "HgN/A
9:30 AM64 °FClear.3 mph83%30.30 "HgN/A
9:00 AM63 °FPartly sunny.No wind88%30.30 "HgN/A
8:30 AM63 °FClear.No wind88%30.30 "Hg6 mi
8:00 AM63 °FClear.1 mph88%30.30 "Hg6 mi
7:30 AM63 °FClear.No wind83%30.27 "Hg6 mi
7:00 AM63 °FClear.2 mph88%30.27 "HgN/A
6:30 AM63 °FClear.No wind88%30.27 "HgN/A
6:00 AM63 °FClear.1 mph88%30.27 "HgN/A
5:30 AM63 °FClear.2 mph88%30.27 "HgN/A
5:00 AM63 °FClear.1 mph88%30.27 "HgN/A
4:30 AM63 °FClear.No wind83%30.27 "HgN/A
4:00 AM63 °FClear.No wind83%30.27 "HgN/A
3:30 AM63 °FClear.No wind83%30.27 "HgN/A
3:00 AM63 °FClear.1 mph83%30.30 "HgN/A
2:30 AM63 °FClear.2 mph83%30.30 "HgN/A
2:00 AM63 °FClear.No wind83%30.30 "HgN/A
1:30 AM63 °FClear.No wind83%30.30 "HgN/A
1:00 AM64 °FClear.No wind78%30.30 "HgN/A
12:30 AM64 °FClear.1 mph78%30.30 "HgN/A
12:00 AM64 °FClear.3 mph78%30.30 "HgN/A
Weather by CustomWeather, © 2014

See weather overviewHow to use our weather pages